Location: Lecco
(45.8566°N, 9.3977°E)
Time: 08:40:36
(UTC+02:00)

Altair - Pass Details

Date: 21 August 2020
Orbit: 1501 x 1682 km, 47.2° (Epoch: 25 September)

Event Time Altitude Azimuth Distance (km) Brightness Sun altitude
Rises 02:28:06 0° 251° (WSW) 4,860 - -30.4°
Reaches altitude 10° 02:31:16 10° 251° (WSW) 3,853 - -30.3°
Exits shadow 02:37:13 43° 250° (WSW) 2,123 7.9 -29.9°
Maximum altitude 02:41:06 87° 165° (SSE) 1,586 7.4 -29.7°
Drops below altitude 10° 02:50:33 10° 76° (ENE) 3,715 9.9 -29.0°
Sets 02:53:33 0° 77° (ENE) 4,680 10.5 -28.8°
